Location: Ch�tenay
(48.0914°N, 1.3174°W)
Time: 01:15:39
(UTC+00:00)

Daily predictions for brighter satellites

Satellite Brightness Start Highest point End
(mag) Time Altitude Azimuth Time Altitude Azimuth Time Altitude Azimuth
Cosmos 1763 Rocket 3.7 00:05:57 37° SSE 00:07:39 53° ESE 00:12:35 10° NNE
Cosmos 2227 Rocket 2.2 00:02:07 10° NNW 00:07:47 68° WSW 00:10:10 35° S
STARLINK-1216 3.8 00:04:39 10° WNW 00:08:39 48° SW 00:08:46 48° SSW
Landsat 4 3.6 00:04:59 10° NNE 00:08:43 78° ESE 00:09:24 57° S
NOSS 7 (E) 4.5 00:09:44 56° ESE 00:09:44 56° ESE 00:12:42 10° NE
Cosmos 2084 Rocket 4.1 00:07:13 10° NW 00:11:38 56° NE 00:14:58 17° ESE
Cosmos 1356 Rocket 3.5 00:08:36 10° NNW 00:12:49 65° W 00:13:55 45° SSW
SL-14 R/B 4.0 00:11:48 33° WSW 00:12:54 42° WNW 00:16:35 10° N
STARLINK-1237 3.9 00:09:39 10° WNW 00:13:34 44° SW 00:13:34 44° SW
SL-16 R/B 4.3 00:12:28 10° ESE 00:17:24 26° ENE 00:22:21 10° N
STARLINK-1202 4.1 00:14:40 10° WNW 00:18:21 41° SW 00:18:21 41° SW
Nadezhda 1 Rocket 4.0 00:16:03 10° N 00:22:18 80° W 00:25:28 32° S
CZ-4 R/B 3.9 00:18:31 10° NNE 00:23:13 62° ESE 00:24:50 38° SSE
STARLINK-1203 4.2 00:19:31 10° WNW 00:23:01 37° SW 00:23:01 37° SW
Cosmos 1300 3.8 00:20:06 10° NNW 00:23:31 31° W 00:24:09 29° WSW
STARLINK 1040 3.7 00:26:21 36° NE 00:26:21 36° NE 00:28:02 10° ENE
SL-16 R/B 4.5 00:23:55 10° ESE 00:25:35 11° E 00:27:14 10° ENE
STARLINK-1444 4.3 00:24:19 10° NW 00:26:15 27° NNE 00:26:52 23° NE
STARLINK-1452 4.3 00:24:57 10° NW 00:26:53 27° NNE 00:27:17 25° NE
STARLINK-1392 4.3 00:25:46 10° NW 00:27:26 26° N 00:27:26 26° N
STARLINK-1399 4.3 00:25:49 10° NW 00:27:36 26° N 00:27:36 26° N
STARLINK-1393 4.3 00:25:50 10° NW 00:27:35 26° N 00:27:35 26° N
STARLINK-1394 4.3 00:25:52 10° NW 00:27:36 26° N 00:27:36 26° N
Cosmos 2285 Rocket 4.1 00:21:24 10° NNW 00:27:47 76° ENE 00:31:55 23° SSE
STARLINK-1395 4.4 00:25:56 10° NW 00:27:25 24° N 00:27:25 24° N
STARLINK-1397 4.3 00:25:55 10° NW 00:27:44 26° N 00:27:44 26° N
STARLINK-1396 4.3 00:25:55 10° NW 00:27:42 26° N 00:27:42 26° N
STARLINK-1414 4.3 00:25:56 10° NW 00:27:36 26° N 00:27:36 26° N
STARLINK-1408 4.3 00:25:59 10° NW 00:27:38 26° N 00:27:38 26° N
STARLINK-1404 4.3 00:26:01 10° NW 00:27:49 26° N 00:27:49 26° N
STARLINK-1416 4.3 00:26:02 10° NW 00:27:44 26° N 00:27:44 26° N
STARLINK-1415 4.3 00:26:02 10° NW 00:27:56 27° NNE 00:27:56 27° NNE
STARLINK-1406 4.3 00:26:05 10° NW 00:27:42 25° N 00:27:42 25° N
STARLINK-1450 4.3 00:26:05 10° NW 00:27:59 27° NNE 00:28:00 27° NNE
STARLINK-1401 4.3 00:26:06 10° NW 00:28:00 27° NNE 00:28:00 27° NNE
STARLINK-1417 4.3 00:26:09 10° NW 00:28:04 27° NNE 00:28:04 27° NNE
STARLINK-1419 4.3 00:26:11 10° NW 00:28:00 27° N 00:28:00 27° N
STARLINK-1413 4.3 00:26:11 10° NW 00:28:05 27° NNE 00:28:05 27° NNE
STARLINK-1402 4.3 00:26:11 10° NW 00:28:05 27° NNE 00:28:05 27° NNE
STARLINK-1422 4.3 00:26:17 10° NW 00:28:09 27° NNE 00:28:09 27° NNE
STARLINK-1453 4.2 00:26:17 10° NW 00:28:12 27° NNE 00:28:18 27° NNE
STARLINK-1398 4.2 00:26:19 10° NW 00:28:15 27° NNE 00:28:28 26° NNE
STARLINK-1420 4.2 00:26:21 10° NW 00:28:15 27° NNE 00:28:17 27° NNE
STARLINK-1440 4.2 00:26:23 10° NW 00:28:18 27° NNE 00:28:21 27° NNE
STARLINK-1460 4.2 00:26:23 10° NW 00:28:18 27° NNE 00:28:20 27° NNE
STARLINK-1436 (VISORSAT) 4.2 00:26:23 10° NW 00:28:19 27° NNE 00:28:33 26° NNE
STARLINK-1410 4.2 00:26:27 10° NW 00:28:23 27° NNE 00:28:23 27° NNE
STARLINK-1423 4.3 00:26:28 10° NW 00:28:16 27° N 00:28:16 27° N
STARLINK-1421 4.3 00:26:29 10° NW 00:28:16 27° N 00:28:16 27° N
STARLINK-1400 4.2 00:26:28 10° NW 00:28:23 27° NNE 00:28:23 27° NNE
STARLINK-1454 4.2 00:26:29 10° NW 00:28:24 27° NNE 00:28:26 27° NNE
STARLINK-1458 4.3 00:26:33 10° NW 00:28:24 27° N 00:28:24 27° N
STARLINK-1246 4.4 00:24:41 10° WNW 00:27:55 34° WSW 00:27:55 34° WSW
STARLINK-1445 4.2 00:26:34 10° NW 00:28:30 27° NNE 00:28:35 27° NNE
STARLINK-1407 4.2 00:26:36 10° NW 00:28:31 27° NNE 00:28:35 27° NNE
STARLINK-1405 4.4 00:26:39 10° NW 00:28:09 25° N 00:28:09 25° N
STARLINK-1446 4.2 00:26:37 10° NW 00:28:32 27° NNE 00:28:37 27° NNE
STARLINK-1370 4.2 00:26:39 10° NW 00:28:34 27° NNE 00:28:37 27° NNE
STARLINK-1439 4.4 00:26:43 10° NW 00:28:12 25° N 00:28:12 25° N
STARLINK-1456 4.3 00:26:41 10° NW 00:28:33 27° N 00:28:33 27° N
STARLINK-1457 4.3 00:26:41 10° NW 00:28:33 27° NNE 00:28:33 27° NNE
STARLINK-1451 4.3 00:26:41 10° NW 00:28:33 27° N 00:28:33 27° N
STARLINK-1409 4.3 00:26:41 10° NW 00:28:33 27° N 00:28:33 27° N
STARLINK-1447 4.2 00:26:42 10° NW 00:28:37 27° NNE 00:28:41 27° NNE
STARLINK-1455 4.2 00:26:42 10° NW 00:28:37 27° NNE 00:28:41 27° NNE
STARLINK-1437 4.2 00:26:43 10° NW 00:28:38 27° NNE 00:28:38 27° NNE
STARLINK-1441 4.2 00:26:44 10° NW 00:28:40 27° NNE 00:28:44 27° NNE
STARLINK-1443 4.2 00:26:47 10° NW 00:28:43 27° NNE 00:28:52 27° NNE
STARLINK-1351 4.2 00:26:49 10° NW 00:28:44 27° NNE 00:28:49 27° NNE
STARLINK-1418 4.2 00:26:49 10° NW 00:28:44 27° NNE 00:28:47 27° NNE
STARLINK-1403 4.2 00:26:49 10° NW 00:28:45 27° NNE 00:28:52 27° NNE
STARLINK-1442 4.2 00:26:50 10° NW 00:28:45 27° NNE 00:28:50 27° NNE
STARLINK-1434 4.2 00:26:49 10° NW 00:28:45 27° NNE 00:28:54 27° NNE
STARLINK-1448 4.2 00:26:52 10° NW 00:28:47 27° NNE 00:28:51 27° NNE
STARLINK-1433 4.2 00:26:53 10° NW 00:28:48 27° NNE 00:28:51 27° NNE
STARLINK-1449 4.2 00:26:55 10° NW 00:28:50 27° NNE 00:28:57 27° NNE
STARLINK-1438 4.3 00:26:58 10° NW 00:28:49 27° N 00:28:49 27° N
STARLINK-1411 4.2 00:27:06 10° NW 00:29:00 27° NNE 00:29:01 27° NNE
STARLINK-1412 4.2 00:27:06 10° NW 00:29:01 27° NNE 00:29:05 27° NNE
CZ-2D R/B 4.2 00:28:37 10° NE 00:31:53 17° E 00:35:02 10° SE
Cosmos-2242 3.7 00:28:23 10° N 00:32:32 47° ENE 00:34:23 28° SE
USA 81 4.4 00:30:17 31° SSE 00:32:40 58° E 00:37:52 10° NNE
Meteor 2-10 Rocket 3.4 00:27:51 10° N 00:33:01 83° ENE 00:35:15 34° SSE
USA 215 3.2 00:28:56 10° SE 00:35:30 78° SW 00:42:05 10° NW
BREEZE-M R/B 3.3 00:28:19 10° WSW 00:35:34 85° NNW 00:39:08 10° ENE
STARLINK-42 3.8 00:36:26 37° ESE 00:36:26 37° ESE 00:38:41 10° ENE
Cosmos 1626 Rocket 3.9 00:34:39 37° SW 00:36:07 57° WNW 00:40:27 10° N
Meteor 1-21 Rocket 4.3 00:34:27 33° S 00:37:06 78° E 00:42:55 10° NNE
STARLINK-60 3.9 00:35:39 10° WNW 00:38:46 48° NNE 00:41:52 10° E
STARLINK-41 3.7 00:40:10 37° E 00:40:10 37° E 00:42:21 10° ENE
STARLINK-1272 4.0 00:42:02 36° ESE 00:42:02 36° ESE 00:44:54 10° ENE
Cosmos 540 Rocket 3.7 00:41:07 34° SSE 00:43:08 55° ESE 00:48:08 10° NNE
SeaSat 1 3.9 00:38:55 10° NNE 00:43:18 33° NW 00:47:21 12° WSW
STARLINK-1307 3.8 00:46:48 41° SE 00:46:48 41° SE 00:50:14 10° ENE
Helios 1B rocket 2.4 00:44:53 10° NNE 00:49:04 82° WNW 00:50:24 42° SSW
STARLINK-1290 3.7 00:50:11 44° SE 00:50:13 44° SE 00:53:47 10° ENE
Cosmos 1980 Rocket 2.4 00:51:50 32° S 00:54:22 61° ESE 00:59:58 10° NNE
ERBS 4.0 00:53:40 10° WNW 00:55:10 20° W 00:55:10 20° W
Uosat 12 SS-18 rocket 4.2 00:52:25 10° NW 00:56:39 55° SW 00:58:02 38° S
Cosmos 468 Rocket 4.5 00:54:20 26° SW 00:57:03 52° WNW 01:02:06 10° NNE
STARLINK-1317 3.6 00:56:33 47° S 00:57:09 54° SE 01:00:59 10° ENE
Meteor 1-29 2.8 00:54:13 10° NNE 00:57:35 81° ESE 00:58:11 57° S
Cosmos 1455 2.3 00:55:35 10° NNW 00:59:16 59° W 01:00:05 46° SW
Cosmos 1328 3.8 00:59:35 41° S 01:00:51 73° E 01:04:51 10° NNE
STARLINK-55 2.8 01:00:33 63° SW 01:01:00 86° SSE 01:04:13 10° ENE
STARLINK-1274 3.3 01:00:56 52° SSE 01:01:11 54° SSE 01:04:40 10° ENE
STARLINK-43 3.7 01:00:05 21° W 01:02:21 63° NNW 01:06:02 10° ENE
Cosmos 1812 Rocket 4.4 00:58:47 10° NNW 01:02:55 38° W 01:04:13 31° SW
STARLINK-1291 3.4 01:04:15 49° S 01:04:52 58° SSE 01:08:33 10° ENE
Cosmos 2369 3.8 01:02:04 27° SW 01:05:13 70° WNW 01:10:54 10° NNE
Cosmos 1937 Rocket 4.0 01:00:13 10° NW 01:05:13 44° WSW 01:07:11 31° SSW
Lacrosse 4 Rocket 2.4 01:03:22 10° NW 01:07:03 28° WSW 01:07:20 28° WSW
Cosmos 1703 3.2 01:05:53 43° SSW 01:07:07 87° W 01:11:04 10° N
STARLINK-1264 3.3 01:07:26 48° SSW 01:08:11 61° SSE 01:11:53 10° ENE
ADEOS II 4.4 01:07:01 10° NE 01:09:53 15° E 01:12:43 10° ESE
Cosmos 2263 Rocket 2.7 01:04:19 10° NNW 01:09:54 60° ENE 01:15:24 10° SE
Cosmos 1825 Rocket 3.5 01:08:39 37° SSW 01:10:18 81° W 01:14:42 10° N
Timation 1 Rocket 4.3 01:05:27 10° NNW 01:11:27 90° WSW 01:16:19 16° SSE
STARLINK-1267 3.3 01:10:40 46° SSW 01:11:32 64° SSE 01:15:14 10° ENE
STARLINK-29 4.0 01:08:25 10° WNW 01:11:33 47° NNE 01:14:39 10° E
STARLINK-28 3.0 01:11:34 41° WSW 01:12:33 76° NNW 01:15:46 10° ENE
SL-4 R/B 2.4 01:08:12 10° WNW 01:13:05 86° NNE 01:17:49 10° ESE
Cosmos 2297 Rocket 3.7 01:09:32 10° WNW 01:13:23 19° W 01:14:46 17° WSW
STARLINK-64 4.2 01:14:12 30° SE 01:14:14 30° SE 01:17:26 10° ENE
USA 229 DEB 4.1 01:07:57 10° NW 01:15:11 73° NE 01:22:47 10° SE
USA 229 4.1 01:08:04 10° NW 01:15:17 73° NE 01:22:53 10° SE
NOSS 3-1 (C) 4.2 01:08:39 10° NW 01:16:03 80° NE 01:24:39 10° SE
Cosmos 372 Rocket 3.9 01:12:42 10° NNW 01:17:50 73° WSW 01:20:47 26° S
STARLINK-1207 3.2 01:17:09 41° SW 01:18:17 71° SSE 01:22:02 10° ENE
PSLV R/B 4.4 01:15:30 10° N 01:19:40 41° WNW 01:21:39 25° WSW
Cosmos 2184 Rocket 4.4 01:16:26 20° SSE 01:20:34 56° E 01:26:36 10° NNE
CZ-4C R/B 3.0 01:16:43 14° WSW 01:21:00 49° NW 01:27:04 10° NE
Cosmos 2360 4.4 01:17:45 26° SW 01:21:04 69° WNW 01:26:48 10° NNE
STARLINK-1266 3.2 01:20:25 39° SW 01:21:41 75° SSE 01:25:26 10° ENE
BREEZE-M DEB (TANK) 3.3 01:23:14 24° ESE 01:23:14 24° ESE 01:24:29 10° E
STARLINK-33 3.0 01:21:40 37° W 01:22:45 71° NNW 01:25:52 10° ENE
NOSS 3-1 (A) 4.5 01:16:51 10° NW 01:24:09 66° NE 01:32:37 10° SE
STARLINK-1284 3.2 01:23:41 36° SW 01:25:05 79° SSE 01:28:51 10° ENE
STARLINK-26 3.3 01:24:28 27° WSW 01:26:12 69° NNW 01:29:38 10° ENE
BREEZE-M DEB (TANK) 1.6 01:23:58 10° W 01:26:47 60° N 01:29:05 10° E
Alouette 2 Rocket 4.2 01:22:32 10° NNW 01:26:56 38° W 01:28:05 30° SW
STARLINK-1258 3.2 01:26:59 34° SW 01:28:31 82° SSE 01:32:17 10° ENE
Cosmos 2150 Rocket 3.9 01:25:18 10° NNW 01:30:29 76° WSW 01:33:54 21° SSE
STARLINK-1292 3.2 01:30:17 31° WSW 01:31:57 86° SSE 01:35:43 10° ENE
Cosmos 1814 Rocket 4.2 01:29:12 26° SW 01:32:12 66° WNW 01:37:30 10° NNE
Cosmos 2322 Rocket 3.4 01:29:42 17° SSE 01:33:16 32° ESE 01:38:12 10° NE
SJ 16-02 3.6 01:34:29 10° WNW 01:35:54 11° W 01:36:30 11° W
STARLINK-1268 2.9 01:36:29 35° WSW 01:37:39 77° NNW 01:40:46 10° ENE
SL-19 R/B 4.4 01:32:28 10° NNE 01:38:05 71° WNW 01:41:48 24° SSW
STARLINK-1289 3.3 01:36:52 27° WSW 01:38:49 87° NNW 01:42:35 10° ENE
Cosmos 2181 Rocket 4.3 01:32:33 10° NNW 01:38:51 56° W 01:42:49 23° SSW
Cosmos 1697 Rocket 3.7 01:36:19 15° WSW 01:40:30 39° NW 01:45:50 10° NNE
STARLINK-1301 3.4 01:38:34 24° WSW 01:40:47 83° NNW 01:44:39 10° ENE
STARLINK-1308 4.5 01:40:08 28° S 01:41:22 34° SE 01:45:07 10° ENE
Resurs 1-4 Rocket 2.4 01:36:05 10° NNE 01:41:22 63° ESE 01:44:54 21° S
STARLINK-66 3.5 01:39:31 20° W 01:41:31 56° NNW 01:44:42 10° ENE
Cosmos 2278 4.2 01:38:01 21° SW 01:41:44 54° WNW 01:47:20 10° NNE
Cosmos 841 Rocket 4.1 01:38:49 21° SW 01:42:00 48° WNW 01:47:03 10° NNE
STARLINK-1303 3.3 01:40:12 25° WSW 01:42:18 83° NNW 01:46:04 10° ENE
DELTA 2 DEB (DPAF) 4.3 01:40:14 27° S 01:42:29 59° WSW 01:46:55 10° NNW
STARLINK-1316 3.0 01:41:30 29° WSW 01:42:55 71° NNW 01:46:02 10° ENE
Cosmos 1400 Rocket 3.1 01:38:56 10° NNW 01:42:59 53° W 01:44:45 30° SSW
STARLINK-1257 3.0 01:42:21 28° WSW 01:43:48 71° NNW 01:46:56 10° ENE
Cosmos 1125 Rocket 3.5 01:38:53 10° NNW 01:44:08 89° ENE 01:48:53 13° SSE
STARLINK-1256 3.0 01:43:18 28° WSW 01:44:46 70° NNW 01:47:54 10° ENE
STARLINK-58 2.8 01:44:00 35° WSW 01:45:13 90° NW 01:48:25 10° ENE
STARLINK-1213 3.1 01:44:09 27° WSW 01:45:40 69° NNW 01:48:47 10° ENE
STARLINK-1312 3.4 01:43:32 23° WSW 01:45:47 80° NNW 01:49:34 10° ENE
STARLINK-1263 3.1 01:45:01 26° W 01:46:33 68° NNW 01:49:40 10° ENE
STARLINK-52 3.3 01:43:44 10° WNW 01:46:57 66° NNE 01:50:08 10° ESE
STARLINK-1259 3.1 01:45:54 26° W 01:47:30 67° NNW 01:50:37 10° ENE
STARLINK-1265 3.1 01:46:15 25° W 01:47:53 67° NNW 01:51:02 10° ENE
STARLINK-1285 3.1 01:46:44 25° W 01:48:22 66° NNW 01:51:29 10° ENE
STARLINK-1296 3.2 01:48:29 24° W 01:50:11 64° NNW 01:53:17 10° ENE
Cosmos 2227 Rocket 4.2 01:49:32 10° W 01:50:43 11° W 01:51:54 10° WSW
STARLINK-1260 3.2 01:49:20 23° W 01:51:05 64° NNW 01:54:12 10° ENE
STARLINK-1304 4.3 01:49:41 27° S 01:51:15 39° SE 01:55:07 10° ENE
STARLINK-1318 3.2 01:50:13 23° W 01:51:59 63° NNW 01:55:06 10° ENE
STARLINK-75 3.6 01:50:26 17° W 01:52:46 53° NNW 01:55:57 10° ENE
STARLINK-1275 3.2 01:51:06 22° W 01:52:54 62° NNW 01:56:00 10° ENE
STARLINK-1309 3.3 01:51:57 22° W 01:53:47 61° NNW 01:56:53 10° ENE
STARLINK-1282 3.3 01:52:49 21° W 01:54:41 61° NNW 01:57:47 10° ENE
Cosmos 2154 Rocket 4.3 01:49:51 16° S 01:54:52 66° E 02:01:02 10° NNE
STARLINK-1313 3.4 01:53:46 19° W 01:55:48 55° NNW 01:58:54 10° ENE
STARLINK-48 3.4 01:53:48 27° SW 01:55:49 73° SSE 01:59:43 10° ENE
STARLINK-1279 3.5 01:54:39 18° W 01:56:45 55° NNW 01:59:49 10° ENE
Meteor 1-27 4.2 01:51:39 10° NNW 01:57:11 67° W 02:01:18 18° S
Cosmos 2298 Rocket 4.5 01:52:15 10° NW 01:57:15 43° WSW 02:00:18 22° SSW
STARLINK-1278 4.0 01:55:21 27° SSW 01:57:21 49° SE 02:01:29 10° ENE
STARLINK-1298 3.3 01:55:23 20° W 01:57:21 59° NNW 02:00:27 10° ENE
Cosmos 2227 4.4 01:52:22 10° NW 01:57:59 56° WSW 02:02:39 15° S
GEOS 3 Rocket 3.8 01:52:52 10° SE 01:58:04 80° NE 02:03:24 10° NW
STARLINK-1293 3.4 01:56:16 19° W 01:58:17 58° NNW 02:01:24 10° ENE
STARLINK-80 3.6 01:55:29 17° WSW 01:58:21 67° NNW 02:02:09 10° ENE
STARLINK-1283 3.8 01:55:37 15° WSW 01:58:57 69° NNW 02:03:04 10° ENE
STARLINK-1280 4.0 01:57:08 26° SSW 01:59:12 51° SE 02:03:20 10° ENE
STARLINK-1255 3.4 01:58:01 18° W 02:00:06 57° NNW 02:03:12 10° ENE
SL-16 R/B 2.5 01:55:29 16° S 02:00:31 68° WSW 02:06:43 10° NNW
Iridium 2 3.6 01:56:56 10° N 02:00:43 87° E 02:03:11 21° S
STARLINK-22 3.5 01:58:40 17° W 02:00:59 55° NNW 02:04:10 10° ENE
STARLINK-1311 3.6 02:00:03 16° W 02:02:09 48° NNW 02:05:02 10° ENE
Cosmos 1241 Rocket 4.5 01:57:57 21° SSW 02:02:12 76° ESE 02:08:28 10° NE
Meteor 2-2 Rocket 4.4 01:56:34 10° N 02:02:39 84° E 02:08:37 10° SSE
STARLINK-1297 3.6 02:00:20 17° WSW 02:03:02 65° NNW 02:06:38 10° ENE
Cosmos 1844 Rocket 4.1 01:59:02 10° NNW 02:04:17 39° NE 02:09:29 10° ESE
NOSS 2-1 (E) 3.2 02:04:58 27° SSW 02:06:36 59° SE 02:10:13 10° NE
CRYOSAT 2 4.4 02:02:47 10° N 02:07:43 84° E 02:11:30 17° S
STARLINK-1286 3.9 02:05:37 24° SSW 02:07:49 52° SE 02:11:54 10° ENE
SL-16 R/B 2.3 02:04:36 20° SSW 02:08:37 71° ESE 02:14:17 10° NNE
MOZ.5/SAFIR/RUBIN 5/SL-8 4.3 02:07:55 22° SSW 02:10:27 39° W 02:14:50 10° NNW
STARLINK-1281 3.9 02:08:48 24° SSW 02:11:04 52° SE 02:15:06 10° ENE
STARLINK-42 4.0 02:08:30 10° W 02:11:29 41° NNW 02:14:29 10° ENE
CZ-2D R/B 2.1 02:07:19 10° NNE 02:12:33 75° WNW 02:16:21 19° SSW
Cosmos 2221 2.5 02:08:35 10° NNW 02:12:57 70° W 02:16:17 17° S
STARLINK-1029 3.0 02:11:18 20° WSW 02:13:20 72° NNW 02:16:31 10° ENE
STARLINK-34 3.3 02:11:58 17° W 02:14:12 58° NNW 02:17:15 10° ENE
STARLINK-60 3.4 02:11:49 10° WNW 02:14:48 37° SW 02:17:47 10° SSE
STARLINK-41 4.0 02:12:07 10° W 02:15:02 40° NNW 02:17:57 10° ENE
STARLINK-1310 3.8 02:13:35 22° SW 02:16:02 57° SE 02:20:06 10° ENE
FALCON 9 DEB 3.3 02:12:48 10° WNW 02:16:15 73° NNE 02:19:43 10° ESE
CZ-4C R/B 4.3 02:14:17 21° SSW 02:16:43 38° W 02:20:54 10° NNW
GP-B 4.0 02:13:47 10° NNW 02:17:49 35° W 02:20:26 19° SW
STARLINK-62 3.4 02:15:41 15° W 02:18:02 55° NNW 02:21:02 10° ENE
Nadezhda 3 Rocket 4.0 02:11:58 10° NNW 02:18:17 78° W 02:24:38 10° S
Cosmos 1315 Rocket 2.9 02:14:47 10° NNW 02:18:39 57° W 02:21:25 18° S
STARLINK-1272 3.9 02:15:30 11° W 02:18:48 53° NNW 02:22:17 10° ENE
USA 215 4.2 02:15:22 15° S 02:19:11 25° SW 02:24:25 10° WNW
Cosmos 1842 Rocket 3.9 02:15:51 10° NNW 02:20:11 49° W 02:23:13 18° SSW
STARLINK-1319 3.7 02:18:21 21° SW 02:20:59 61° SSE 02:25:05 10° ENE
STARLINK-1375 4.4 02:17:15 10° WNW 02:21:12 52° NNE 02:25:07 10° E
IRIDIUM 114 4.5 02:16:46 12° S 02:21:32 77° E 02:26:46 10° N
CBERS-1 4.2 02:17:01 10° NNE 02:22:10 71° ESE 02:26:39 14° S
STARLINK-1307 4.0 02:21:04 10° W 02:24:43 53° NNW 02:28:22 10° ENE
STARLINK-1350 4.4 02:21:36 10° WNW 02:25:33 53° NNE 02:29:30 10° E
STARLINK-1277 3.7 02:23:08 19° SW 02:25:58 65° SSE 02:30:04 10° ENE
Shenzhou-11 Module 2.8 02:26:47 23° S 02:26:47 23° S 02:28:41 10° ESE
STARLINK-1290 4.1 02:24:36 10° W 02:28:14 52° NNW 02:31:54 10° ENE
STARLINK-1352 4.3 02:25:47 10° WNW 02:29:44 55° NNE 02:33:41 10° E
Cosmos 2058 2.9 02:27:00 16° S 02:30:19 86° W 02:34:34 10° N
IRIDIUM 103 4.3 02:25:55 12° S 02:30:42 89° W 02:35:58 10° N
Cosmos 2360 Rocket 2.9 02:25:44 12° S 02:30:46 48° ESE 02:36:11 10° NE
STARLINK-1276 3.6 02:27:56 18° SW 02:30:57 70° SSE 02:35:05 10° ENE
STARLINK-1368 4.2 02:30:29 10° WNW 02:34:27 57° NNE 02:38:25 10° E
STARLINK-1305 3.6 02:32:42 16° SW 02:35:54 75° SSE 02:40:02 10° ENE
STARLINK-1317 4.3 02:32:10 10° W 02:35:58 49° NNW 02:39:47 10° ENE
STARLINK-1306 3.6 02:33:14 16° SW 02:36:34 79° SSE 02:40:47 10° ENE
STARLINK-1274 4.2 02:35:10 10° W 02:38:35 45° NNW 02:42:01 10° ENE
Cosmos 1980 Rocket 3.6 02:33:59 10° WSW 02:38:48 28° NW 02:43:39 10° NNE
STARLINK-1369 4.2 02:34:55 10° WNW 02:38:54 60° NNE 02:42:54 10° E
CZ-4B R/B 3.8 02:34:48 10° N 02:39:59 61° WNW 02:44:30 14° SSW
STARLINK-1262 3.6 02:37:30 15° WSW 02:40:55 80° SSE 02:45:04 10° ENE
STARLINK-1291 4.3 02:39:26 10° W 02:43:02 46° NNW 02:46:40 10° ENE
STARLINK-1372 4.1 02:39:05 10° WNW 02:43:04 62° NNE 02:47:00 10° ESE
Cosmos 2333 Rocket 4.0 02:40:02 10° SSE 02:44:32 25° ESE 02:49:04 10° NE
STARLINK-1300 3.6 02:42:17 14° WSW 02:45:52 85° SSE 02:50:02 10° ENE
STARLINK-1264 4.4 02:42:46 10° W 02:46:23 45° NNW 02:50:00 10° ENE
Meteor 1-28 Rocket 3.8 02:43:08 10° SSE 02:46:50 58° ENE 02:50:31 10° N
STARLINK-29 3.3 02:44:38 10° WNW 02:47:39 39° SW 02:50:39 10° SE
STARLINK-1378 4.0 02:43:48 10° WNW 02:47:49 65° NNE 02:51:49 10° ESE
Cosmos 2219 Rocket 4.0 02:44:11 10° SSE 02:48:39 25° ESE 02:53:07 10° NE
IRIDIUM 106 4.4 02:44:10 12° SSW 02:49:01 64° W 02:54:14 10° N
STARLINK-1267 4.4 02:46:11 10° W 02:49:46 44° NNW 02:53:23 10° ENE
ADEOS II 2.1 02:44:59 10° NNE 02:50:17 86° WNW 02:55:33 10° SSW
STARLINK-1295 3.6 02:47:03 12° WSW 02:50:50 89° SSE 02:55:00 10° ENE
STARLINK-64 3.6 02:47:55 10° WSW 02:51:29 62° NNW 02:55:04 10° ENE
STARLINK-1379 3.9 02:48:18 10° WNW 02:52:20 68° NNE 02:56:21 10° ESE
SL-4 R/B 3.1 02:48:18 10° WNW 02:52:30 30° SW 02:56:33 10° SSE
IRS-1D 3.7 02:47:49 10° N 02:53:03 66° WNW 02:58:00 11° SSW
AQUA 4.4 02:48:36 10° N 02:53:08 44° WNW 02:57:17 12° SW
Cosmos 2263 Rocket 3.3 02:48:59 10° NW 02:53:23 24° WSW 02:57:35 11° SSW
IDEFIX/ARIANE 42P 3.9 02:48:47 10° NNE 02:53:40 37° E 02:58:30 10° SSE
Cosmos 1606 3.9 02:50:36 10° N 02:54:14 43° ENE 02:57:51 10° SSE
STARLINK-1287 3.6 02:51:50 11° WSW 02:55:49 86° NNW 02:59:59 10° ENE
STARLINK-1329 3.9 02:52:08 10° WNW 02:56:11 71° NNE 03:00:12 10° ESE
STARLINK-25 4.1 02:53:37 14° SSW 02:56:16 36° SE 02:59:30 10° ENE
ERS-2 2.5 02:52:49 10° SSE 02:56:27 66° ENE 03:00:06 10° N
STARLINK-1207 4.5 02:53:00 10° W 02:56:36 42° N 03:00:12 10° ENE
BREEZE-M R/B 2.1 02:54:22 10° WNW 02:58:14 88° NNE 03:00:47 10° ESE
Cosmos 2341 Rocket 4.1 02:52:57 10° SSW 02:59:18 76° W 03:05:39 10° N
ARIANE 5 R/B 2.7 02:54:25 10° NNE 02:59:28 72° ESE 03:04:26 10° S
Cosmos 1892 3.3 02:56:52 13° SW 03:00:00 40° WNW 03:03:37 10° N
STARLINK-1362 3.8 02:56:41 10° WNW 03:00:44 74° NNE 03:04:46 10° ESE
STARLINK-1320 2.8 02:58:57 10° WNW 03:02:04 87° SSW 03:05:12 10° ESE
STARLINK-1322 2.8 02:59:18 10° WNW 03:02:26 86° SSW 03:05:33 10° ESE
NOSS 2-1 (C) 4.1 02:59:30 10° WSW 03:02:41 36° NW 03:06:13 10° NNE
STARLINK-1324 2.8 02:59:37 10° WNW 03:02:45 86° SSW 03:05:51 10° ESE
STARLINK-1294 2.8 02:59:55 10° WNW 03:03:03 86° SSW 03:06:12 10° ESE
STARLINK-1261 2.8 03:00:18 10° WNW 03:03:26 85° SSW 03:06:34 10° ESE
STARLINK-1325 2.8 03:00:39 10° WNW 03:03:47 85° SSW 03:06:54 10° ESE
CZ-2C R/B 4.3 03:00:32 10° NNE 03:03:58 33° E 03:07:27 10° SSE
STARLINK-1333 2.8 03:01:01 10° WNW 03:04:09 84° SSW 03:07:16 10° ESE
STARLINK-1334 2.8 03:01:18 10° WNW 03:04:26 84° SSW 03:07:33 10° ESE
CZ-2D R/B 4.2 03:00:17 10° NNE 03:04:28 55° E 03:08:45 10° S
STARLINK-1326 2.8 03:01:38 10° WNW 03:04:45 83° SSW 03:07:52 10° ESE
STARLINK-1299 3.9 03:00:30 10° WSW 03:04:46 72° NNW 03:09:01 10° ENE
STARLINK-1323 2.8 03:02:01 10° WNW 03:05:09 83° SSW 03:08:16 10° ESE
STARLINK-1373 3.7 03:01:09 10° WNW 03:05:11 78° NNE 03:09:14 10° ESE
STARLINK-1349 2.8 03:02:19 10° WNW 03:05:27 82° SSW 03:08:34 10° ESE
STARLINK-1336 2.8 03:02:38 10° WNW 03:05:46 82° SSW 03:08:53 10° ESE
STARLINK-1302 3.7 03:01:38 10° WSW 03:05:46 78° NNW 03:09:56 10° ENE
STARLINK-1331 2.8 03:03:01 10° WNW 03:06:09 81° SSW 03:09:15 10° ESE
IRS-1C 4.2 03:01:05 10° NNE 03:06:26 78° WNW 03:11:46 10° SSW
STARLINK-1344 2.8 03:03:19 10° WNW 03:06:27 81° SSW 03:09:33 10° ESE
STARLINK-1343 2.8 03:03:42 10° WNW 03:06:49 81° SSW 03:09:56 10° ESE
STARLINK-1346 2.8 03:03:58 10° WNW 03:07:07 80° SSW 03:10:17 10° ESE
STARLINK-1328 2.8 03:04:25 10° WNW 03:07:33 80° SSW 03:10:40 10° ESE
STARLINK-24 4.0 03:03:58 11° SW 03:07:37 49° SE 03:11:30 10° ENE
NOSS 2-1 (D) 4.3 03:04:29 10° WSW 03:07:37 33° NW 03:11:07 10° NNE
STARLINK-1354 2.8 03:04:42 10° WNW 03:07:50 79° SSW 03:10:57 10° ESE
STARLINK-1347 2.8 03:04:59 10° WNW 03:08:07 79° SSW 03:11:14 10° ESE
Cosmos 1844 3.8 03:02:22 10° NNW 03:08:13 87° ENE 03:14:01 10° SSE
STARLINK-1357 2.8 03:05:26 10° WNW 03:08:33 78° SSW 03:11:40 10° ESE
STARLINK-1335 2.8 03:05:42 10° WNW 03:08:50 78° SSW 03:11:57 10° ESE
STARLINK-1327 2.8 03:06:04 10° WNW 03:09:11 78° SSW 03:12:18 10° ESE
STARLINK-1340 2.8 03:06:22 10° WNW 03:09:29 77° SSW 03:12:35 10° ESE
STARLINK-1356 2.8 03:06:45 10° WNW 03:09:51 77° SSW 03:12:59 10° ESE
STARLINK-1390 3.7 03:05:49 10° WNW 03:09:53 82° NNE 03:13:57 10° ESE
STARLINK-1345 2.8 03:07:03 10° WNW 03:10:10 76° SSW 03:13:16 10° ESE
STARLINK-1355 2.8 03:07:25 10° WNW 03:10:32 76° SSW 03:13:39 10° SE
STARLINK-1273 3.8 03:06:36 10° WSW 03:10:45 74° NNW 03:14:54 10° ENE
STARLINK-1321 2.8 03:07:46 10° WNW 03:10:53 75° SSW 03:14:00 10° SE
STARLINK-1358 2.8 03:08:09 10° WNW 03:11:16 75° SSW 03:14:22 10° SE
STARLINK-1332 2.8 03:08:25 10° WNW 03:11:33 74° SSW 03:14:40 10° SE
STARLINK-1348 2.8 03:08:46 10° WNW 03:11:54 74° SSW 03:15:00 10° SE
STARLINK-1330 2.8 03:09:06 10° WNW 03:12:13 74° SSW 03:15:19 10° SE
STARLINK-1363 2.8 03:09:26 10° WNW 03:12:33 73° SSW 03:15:40 10° SE
STARLINK-1337 2.8 03:09:48 10° WNW 03:12:55 73° SSW 03:16:02 10° SE
STARLINK-1008 4.4 03:09:17 10° SSW 03:13:10 41° SE 03:17:05 10° ENE
STARLINK-1342 2.8 03:10:07 10° WNW 03:13:15 72° SSW 03:16:20 10° SE
STARLINK-1364 2.8 03:10:28 10° WNW 03:13:34 72° SSW 03:16:41 10° SE
STARLINK-1376 2.8 03:10:48 10° WNW 03:13:55 71° SSW 03:17:01 10° SE
STARLINK-1360 2.8 03:11:08 10° WNW 03:14:15 71° SSW 03:17:22 10° SE
STARLINK-1361 2.8 03:11:29 10° WNW 03:14:36 71° SSW 03:17:42 10° SE
STARLINK-1367 2.8 03:11:45 10° WNW 03:14:54 70° SSW 03:18:02 10° SE
STARLINK-61 3.5 03:11:01 10° WSW 03:14:57 82° NNW 03:18:54 10° ENE
STARLINK-1366 2.8 03:12:08 10° WNW 03:15:14 70° SSW 03:18:21 10° SE
STARLINK-1288 3.9 03:11:36 10° WSW 03:15:44 70° NNW 03:19:53 10° ENE
STARLINK-1365 3.6 03:11:49 10° WNW 03:15:54 88° NNE 03:19:59 10° ESE
STARLINK-81 3.7 03:12:45 10° SW 03:16:16 50° SE 03:19:48 10° ENE
Cosmos 1151 Rocket 3.3 03:12:20 10° N 03:16:45 75° E 03:21:07 10° SSE
Cosmos 2322 Rocket 2.8 03:11:44 10° SW 03:17:08 46° NW 03:22:33 10° NNE
Cosmos 1461 3.9 03:13:11 10° NNW 03:17:48 59° NE 03:22:28 10° SE
STARLINK-54 3.6 03:14:28 10° SW 03:17:59 56° SSE 03:21:33 10° ENE
STARLINK-1014 4.3 03:14:13 10° SW 03:18:07 44° SE 03:22:04 10° ENE
CZ-4B R/B 4.2 03:15:58 10° ESE 03:18:20 20° ENE 03:20:45 10° NNE
SL-8 Rocket 4.1 03:12:43 10° SSW 03:19:00 73° W 03:25:16 10° N
STARLINK-77 3.6 03:15:59 10° SW 03:19:30 53° SSE 03:23:04 10° ENE
Resurs 1-4 Rocket 3.7 03:16:43 10° N 03:20:46 23° WNW 03:24:48 10° WSW
STARLINK-1308 3.9 03:16:39 10° WSW 03:20:46 66° NNW 03:24:54 10° ENE
STARLINK-58 4.5 03:18:33 10° WNW 03:21:30 34° N 03:24:27 10° ENE
Cosmos 2151 3.1 03:17:51 10° SSW 03:22:05 62° WNW 03:26:23 10° N
Lacrosse 5 rocket 3.4 03:19:42 10° S 03:22:24 17° SE 03:25:03 10° E
STARLINK-52 4.1 03:20:12 10° W 03:22:51 23° SW 03:25:28 10° SSE
STARLINK-1025 4.2 03:19:07 10° SW 03:23:06 47° SE 03:27:06 10° ENE
Cosmos 2218 Rocket 4.1 03:17:02 10° SSW 03:23:26 79° W 03:29:53 10° N
H-2A R/B 2.1 03:19:18 10° S 03:23:44 79° WSW 03:28:16 10° NNW
STARLINK-79 3.5 03:20:50 10° SW 03:24:23 58° SSE 03:27:58 10° ENE
Cosmos 1766 Rocket 3.5 03:20:28 10° S 03:24:48 85° W 03:29:10 10° N
COBE Rocket 4.3 03:20:01 10° S 03:24:57 52° W 03:30:01 10° NNW
STARLINK-1338 3.5 03:21:45 10° WNW 03:25:45 82° SSW 03:29:44 10° ESE
STARLINK-78 3.5 03:22:27 10° SW 03:26:01 60° SSE 03:29:37 10° ENE
Cosmos 1408 3.6 03:24:18 10° SW 03:27:37 31° WNW 03:30:56 10° N
STARLINK-57 3.4 03:24:05 10° SW 03:27:39 64° SSE 03:31:15 10° ENE
Okean 3 Rocket 3.7 03:23:22 10° SSW 03:27:53 69° W 03:32:27 10° N
STARLINK-1017 4.1 03:24:01 10° SW 03:28:01 51° SE 03:32:04 10° ENE
Cosmos 1515 Rocket 4.3 03:24:19 10° N 03:28:39 58° ENE 03:32:56 10° SSE
STARLINK-49 3.4 03:25:36 10° SW 03:29:11 63° SSE 03:32:46 10° ENE
STARLINK-1304 4.1 03:26:37 10° W 03:30:44 61° NNW 03:34:51 10° ENE
Spot 4 Rocket 4.1 03:26:03 10° NNE 03:31:13 84° WNW 03:36:21 10° SSW
